Tracking 20623 objects as of 3-Apr-2020
HD Live streaming from Space Station
objects crossing your sky now

OPS 7898 (P/L 3)

Track OPS 7898 (P/L 3) now!
10-day predictions
OPS 7898 (P/L 3) is classified as:


NORAD ID: 5681
Int'l Code: 1971-110D
Perigee: 986.1 km
Apogee: 995.8 km
Inclination: 70.0 °
Period: 104.8 minutes
Semi major axis: 7361 km
RCS: Unknown
Launch date: December 14, 1971
Source: United States (US)
Launch site: AIR FORCE WESTERN TEST RANGE (AFWTR)
aabbcc
Your satellite tracking list
Your tracking list is empty




NASA's NSSDC Master Catalog

Two Line Element Set (TLE):
1  5681U 71110D   20094.16273461 -.00000054 +00000-0 -36920-5 0  9991
2  5681 069.9924 000.2739 0006612 148.2016 211.9479 13.74409122045431
Source of the keplerian elements: McCants